Location: Woodhurst
(52.3667°N, 0.0667°W)
Time: 20:31:28
(UTC+00:00)

Cosmos 1470 - Pass Details

Date: 19 May 2025
Orbit: 455 x 466 km, 82.5° (Epoch: 21 June)

Event Time Altitude Azimuth Distance (km) Brightness Sun altitude
Rises 23:03:03 0° 351° (N) 2,520 8.0 -16.7°
Reaches altitude 10° 23:05:10 10° 356° (N) 1,640 6.5 -16.8°
Maximum altitude 23:08:43 59° 77° (ENE) 548 2.7 -16.9°
Enters shadow 23:09:49 38° 138° (SE) 730 3.0 -16.9°
